Weather History for Foz do Iguacu, Brazil

Change the Weather History Date:

Sunday, September 15, 2013

  Actual Average Record
Temperature  
Mean Temperature 68 °F -  
Max Temperature 71 °F 77 °F 95 °F (2012)
Min Temperature 64 °F 55 °F 41 °F (2008)
Cooling Degree Days 2    
Growing Degree Days 18 (Base 50)    
Moisture  
Dew Point 64 °F    
Average Humidity 87    
Maximum Humidity 94    
Minimum Humidity 68    
Precipitation  
Precipitation 0.16 in - - ()
Sea Level Pressure  
Sea Level Pressure 29.89 in    
Wind  
Wind Speed 4 mph ()    
Max Wind Speed 8 mph    
Max Gust Speed -    
Visibility 5.4 miles    
Events Rain , Thunderstorm    
Averages and records for this station are not official NWS values.
T = Trace of Precipitation, MM = Missing Value Source: Averaged Metar Reports

Daily Weather History Graph

Daily Weather History Graph

Search for Another Location

Airport:

Trip Planner

Search our weather history database for the weather conditions in past years. The results will help you decide how hot, cold, wet, or windy it might be!

Date:

Astronomy

Sep. 15, 2013 Rise Set
Actual Time 6:34 AM BRT 6:31 PM BRT
Civil Twilight 6:12 AM BRT 6:54 PM BRT
Nautical Twilight 5:45 AM BRT 7:21 PM BRT
Astronomical Twilight 5:18 AM BRT 7:47 PM BRT
Moon 2:49 PM BRT (9/15) 3:21 AM BRT (9/15)
Length of Visible Light 12h 42m
Length of Day
11h 56m
Waxing Gibbous, 81% of the Moon is Illuminated
Sep 15
Waxing Gibbous
Sep 19
Full
Sep 27
Last Quarter
Oct 4
New
Oct 11
First Quarter

Hourly Weather History & Observations

Time (BRT) Temp. Dew Point Humidity Pressure Visibility Wind Dir Wind Speed Gust Speed Precip Events Conditions
12:00 AM 69.8 °F 59.0 °F 68% 29.89 in - South 4.6 mph - N/A   Clear
1:00 AM 66.2 °F 60.8 °F 83% 29.92 in - SW 3.5 mph - N/A   Clear
2:00 AM 66.2 °F 60.8 °F 83% 29.89 in - SSW 3.5 mph - N/A   Clear
3:00 AM 65 °F 62 °F 85% 29.86 in 12 mi Calm Calm - -  
3:00 AM 66.2 °F 60.8 °F 83% 29.89 in - Calm Calm - N/A   Clear
4:00 AM 64.4 °F 60.8 °F 88% 29.86 in - Calm Calm - N/A   Clear
5:00 AM 66.2 °F 62.6 °F 88% 29.86 in - Calm Calm - N/A   Clear
6:00 AM 64.4 °F 62.6 °F 94% 29.89 in - South 3.5 mph - N/A   Clear
7:00 AM 64.4 °F 62.6 °F 94% 29.89 in 4.3 mi South 3.5 mph - N/A   Scattered Clouds
8:00 AM 66.2 °F 62.6 °F 88% 29.95 in - SW 3.5 mph - N/A   Clear
9:00 AM 67 °F 63 °F 83% 29.97 in 12 mi SW 6.9 mph - -   Mostly Cloudy
9:00 AM 68.0 °F 62.6 °F 83% 29.98 in 6.2 mi SW 6.9 mph - N/A   Mostly Cloudy
10:00 AM 66.2 °F 62.6 °F 88% 29.98 in 6.2 mi SW 6.9 mph - N/A   Mostly Cloudy
11:00 AM 68.0 °F 64.4 °F 88% 30.01 in 6.2 mi South 4.6 mph - N/A   Mostly Cloudy
12:00 PM 71.6 °F 64.4 °F 78% 29.95 in 6.2 mi ESE 8.1 mph - N/A   Overcast
1:00 PM 71.6 °F 64.4 °F 78% 29.92 in 6.2 mi ENE 4.6 mph - N/A   Overcast
2:00 PM 69.8 °F 64.4 °F 83% 29.89 in 5.0 mi ESE 4.6 mph - N/A   Scattered Clouds
3:00 PM 71 °F 64 °F 73% 29.84 in 5 mi ESE 6.9 mph - - Rain Light Rain
3:00 PM 71.6 °F 64.4 °F 78% 29.83 in 5.0 mi ESE 6.9 mph - N/A   Mostly Cloudy
4:00 PM 71.6 °F 66.2 °F 83% 29.83 in 6.2 mi ENE 4.6 mph - N/A   Scattered Clouds
5:00 PM 69.8 °F 66.2 °F 88% 29.83 in 6.2 mi SW 2.3 mph - N/A   Mostly Cloudy
6:00 PM 69.8 °F 66.2 °F 88% - 5.0 mi WSW 4.6 mph - N/A   Mostly Cloudy
6:24 PM 68.0 °F 66.2 °F 94% 29.86 in 2.8 mi SSW 4.6 mph - N/A   Light Drizzle
6:38 PM 68.0 °F 66.2 °F 94% 29.86 in 2.5 mi SW 4.6 mph - N/A   Light Drizzle
7:00 PM 68.0 °F 66.2 °F 94% - 3.7 mi SW 4.6 mph - N/A Thunderstorm Thunderstorm
7:15 PM 68.0 °F 66.2 °F 94% - 3.1 mi Calm Calm - N/A Thunderstorm Partly Cloudy
7:27 PM 68.0 °F 66.2 °F 94% - 2.2 mi SSW 3.5 mph - N/A Rain , Thunderstorm Thunderstorms and Rain
7:45 PM 68.0 °F 66.2 °F 94% 29.86 in 2.5 mi SSW 5.8 mph - N/A Rain , Thunderstorm Light Thunderstorms and Rain
8:00 PM 68.0 °F 66.2 °F 94% 29.86 in 2.5 mi South 4.6 mph - N/A Rain , Thunderstorm Light Thunderstorms and Rain
9:00 PM 66.2 °F 64.4 °F 94% 29.89 in 4.3 mi South 4.6 mph - N/A Thunderstorm Thunderstorm
10:00 PM 64.4 °F 62.6 °F 94% 29.89 in 6.2 mi South 5.8 mph - N/A Thunderstorm Thunderstorm
10:50 PM 64.4 °F 62.6 °F 94% 29.89 in 6.2 mi SE 8.1 mph - N/A   Mostly Cloudy
11:00 PM 64.4 °F 60.8 °F 88% 29.89 in 6.2 mi SE 8.1 mph - N/A   Mostly Cloudy